Regional Weather Roundup
Issued by NWS

Home | Current Version | Previous Version | Text Only | Print | Product List | Glossary On
Versions: 1 2 3 4 5 6 7 8 9 10 11 12 13 14 15 16 17 18 19 20 21 22 23 24 25 26 27 28 29 30 31 32 33 34 35 36 37 38 39 40 41 42 43 44 45 46 47 48 49 50
000
ASUS43 KFSD 221402
RWRSD

WEATHER ROUNDUP FOR SOUTH DAKOTA
NATIONAL WEATHER SERVICE SIOUX FALLS SD
900 AM CDT FRI AUG 22 2014

NOTE: "FAIR" INDICATES FEW OR NO CLOUDS BELOW 12,000 FEET WITH NO
SIGNIFICANT WEATHER AND/OR OBSTRUCTIONS TO VISIBILITY.


SDZ001>005-009-010-012>017-221500-
NORTHWEST AND NORTH CENTRAL SOUTH DAKOTA

CITY           SKY/WX    TMP DP  RH WIND       PRES   REMARKS
BUFFALO          N/A     62  59  90 CALM      30.03R
FAITH            N/A     62  61  96 N7        30.05R
MOBRIDGE       LGT RAIN  65  63  93 CALM      30.00F
$$

SDZ012>016-024>037-041>051-057-063-072>074-221500-
SOUTHWEST AND SOUTH CENTRAL SOUTH DAKOTA

CITY           SKY/WX    TMP DP  RH WIND       PRES   REMARKS
RAPID CTY ARPT CLOUDY    62  61  96 NW8       30.09R
PIERRE         PTSUNNY   69  66  90 NE13      29.99R
CUSTER         MOSUNNY   56  52  86 N3        30.16S
ELLSWORTH AFB  CLOUDY    63  63 100 N8        30.09R
PHILIP         CLOUDY    67  63  87 NE6       30.02R
PINE RIDGE     CLOUDY    61  60  97 W7        30.08R
WINNER         FAIR      72  66  81 NE5       30.00F
$$

SDZ004>011-016>023-039-040-221500-
NORTHEAST SOUTH DAKOTA

CITY           SKY/WX    TMP DP  RH WIND       PRES   REMARKS
ABERDEEN       CLOUDY    65  65 100 N10       30.00R
WATERTOWN      SUNNY     68  67  96 N3        29.98S
SISSETON         N/A     69  69 100 N9        29.96S
$$

SDZ017-020-022-023-036>040-048>070-221500-
SOUTHEAST SOUTH DAKOTA

CITY           SKY/WX    TMP DP  RH WIND       PRES   REMARKS
SIOUX FALLS    MOSUNNY   74  69  85 NE6       29.96R
HURON          MOSUNNY   69  65  86 NW5       29.97S
CHAMBERLAIN    PTSUNNY   70  65  85 NE5       30.00S
MITCHELL       FOG       67  67 100 N7        29.98R VSB 1/4
YANKTON        SUNNY     72  70  94 CALM      29.94R
$$

ABBREVIATIONS USED IN REMARKS
   TC - TEMPERATURE IN CELSIUS
  WCI - WIND CHILL INDEX
   HX - HEAT INDEX
  VSB - VISIBILITY



USA.gov is the U.S. government's official web portal to all federal, state and local government web resources and services.